Probability
15 10 5 3 1 0 0 0 0 0 0 0 0 0 0 0 0 0 2 3 4 2 1 1 4 6 6 5 3 1 0 1 4 6 6 6 6 5 2 1 1 1 1 4 6 7 6 6 6
10 7 4 3 1 0 0 0 0 0 0 0 0 0 0 0 0 1 3 4 4 2 1 1 3 4 4 3 2 1 0 0 2 5 6 6 6 5 3 2 2 2 2 4 7 7 7 8 8
5 5 4 3 2 1 0 0 0 0 0 0 0 0 0 0 0 1 3 5 5 2 0 1 3 4 2 1 2 3 2 1 2 4 6 7 6 5 4 3 3 3 3 5 6 6 8 10 11
6 5 4 3 2 1 0 0 1 1 0 0 0 0 0 0 0 1 3 5 5 2 1 3 5 5 3 2 3 4 4 3 3 3 5 6 7 6 5 4 4 5 5 4 4 5 8 10 11
6 5 3 2 1 0 1 1 2 3 1 0 0 0 0 1 1 2 4 5 4 2 2 3 5 5 3 3 5 5 5 5 5 4 4 5 7 9 8 7 7 8 7 5 5 6 7 7 7
6 5 3 1 0 0 1 2 2 3 2 0 0 0 0 0 1 2 4 5 4 3 3 4 4 4 4 5 6 6 5 4 4 5 5 5 7 9 10 10 10 10 10 8 7 6 5 5 5
6 4 3 2 0 0 1 1 1 1 1 0 0 0 0 0 0 2 5 6 5 4 4 4 3 2 3 5 6 6 4 3 4 5 6 6 7 8 10 11 11 12 12 11 9 6 4 4 4
6 4 2 1 0 0 0 0 0 0 0 0 0 1 1 1 1 1 4 6 5 4 3 2 1 1 2 3 5 6 5 3 3 5 5 6 6 6 8 9 10 11 11 10 8 5 3 3 3
6 3 1 0 0 0 0 0 0 0 0 0 1 2 2 2 1 1 3 4 3 3 3 2 2 1 1 1 2 4 5 3 2 2 3 3 2 3 4 5 6 6 6 6 5 4 4 4 4
4 3 1 0 0 0 0 0 0 1 1 1 2 3 3 3 2 2 2 3 2 3 3 4 4 3 1 0 0 1 2 1 1 0 1 1 0 0 1 3 3 3 2 1 2 3 4 4 3
1 1 0 0 0 0 0 0 0 1 1 1 2 2 2 2 2 3 3 2 3 4 5 4 4 3 1 0 0 0 0 0 0 0 0 0 0 0 1 2 2 1 0 1 1 1 2 2 1
0 0 0 0 0 1 1 1 1 1 1 1 2 2 1 1 1 2 3 3 5 6 5 4 3 2 1 0 0 0 0 0 0 0 0 0 0 0 1 1 1 1 0 1 1 1 0 0 1
0 0 0 0 1 2 2 2 3 3 3 4 4 3 1 0 0 1 3 5 6 6 4 4 3 2 1 0 0 0 0 0 0 0 0 0 0 0 0 0 0 0 0 0 0 0 0 0 1
0 0 0 0 2 3 2 2 4 5 6 5 5 4 2 1 1 1 3 5 5 5 4 3 3 2 1 0 0 0 0 0 0 0 0 0 0 0 0 0 0 0 0 0 0 0 0 0 1
0 0 0 0 1 2 1 3 5 7 6 5 5 5 4 2 2 2 3 3 3 4 3 2 2 2 1 0 0 0 0 0 0 0 0 0 1 0 0 0 0 0 0 0 0 0 0 0 0
0 0 0 0 0 0 1 3 7 7 6 6 6 7 6 5 3 3 4 3 2 3 4 4 4 2 1 0 0 0 0 0 0 0 0 0 0 0 0 0 0 0 0 0 0 0 0 0 0
0 0 0 0 0 0 1 4 7 8 7 6 7 9 9 8 7 7 6 5 3 3 4 5 4 2 0 0 0 0 0 0 0 0 0 0 0 0 0 0 0 0 0 0 0 0 0 0 0
0 0 0 0 0 1 1 4 7 8 6 6 7 10 12 12 11 10 8 6 4 3 2 2 2 2 1 1 0 0 0 0 0 0 0 0 0 0 0 0 0 0 0 0 0 0 0 0 0
0 0 0 1 2 1 2 4 5 4 4 4 6 9 11 11 11 9 8 7 6 3 1 2 2 2 3 4 3 1 1 0 0 0 0 0 0 0 0 0 0 0 0 0 0 0 0 0 0
0 0 0 1 2 2 2 3 3 2 2 4 6 8 9 10 10 10 9 9 8 5 3 3 3 3 4 6 6 4 2 1 0 0 1 0 0 0 0 0 0 0 0 0 0 0 0 0 0
0 0 0 1 1 1 3 3 2 1 2 4 6 7 9 11 11 11 10 10 9 8 5 4 4 3 4 6 7 6 4 2 1 0 0 0 0 0 0 0 0 0 0 0 0 0 0 0 1
0 0 0 0 0 1 2 3 2 1 2 2 4 6 9 11 13 12 11 10 9 9 7 6 5 5 5 6 8 8 5 3 1 0 0 0 0 0 0 0 0 0 0 0 0 0 0 0 1
0 0 0 0 0 0 1 1 1 1 1 1 3 4 8 12 14 13 10 8 8 8 8 8 7 7 7 8 9 8 5 2 1 0 0 0 0 0 0 0 0 0 0 0 0 1 1 1 1
0 0 0 0 0 0 0 0 0 1 1 1 2 4 9 13 16 15 11 8 8 8 10 11 11 11 10 9 9 8 5 3 2 1 0 0 0 0 0 0 1 0 0 0 1 2 3 3 2
0 0 0 0 0 0 0 0 0 0 0 1 2 6 11 15 18 17 13 11 10 9 12 15 15 13 11 9 8 7 6 5 5 4 2 1 0 0 0 0 0 0 0 1 2 4 5 5 4
0 0 0 0 0 0 0 0 0 0 0 1 4 8 13 16 18 16 14 13 11 11 14 16 15 13 12 10 8 7 6 6 6 6 5 3 1 0 0 0 0 0 0 1 3 4 6 6 6
0 0 0 0 0 0 0 0 0 0 1 3 6 9 12 15 14 13 13 13 14 15 15 14 12 12 13 12 8 6 6 6 6 6 6 4 2 1 0 0 0 0 0 1 4 5 6 6 6
0 0 0 0 0 0 0 0 0 1 2 5 8 10 11 12 12 12 13 14 17 18 16 12 10 10 12 10 7 5 5 5 6 6 6 5 4 2 1 0 0 0 1 2 4 5 5 5 6
0 0 0 0 0 0 0 0 0 1 3 6 9 10 10 11 12 13 14 16 16 15 14 12 9 8 7 6 4 3 2 2 3 4 5 5 4 3 2 1 1 2 2 3 3 4 5 6 6
0 0 0 0 0 0 0 0 0 0 3 7 9 10 10 12 13 14 15 15 13 11 12 13 10 6 5 4 3 2 1 0 1 2 3 4 4 3 3 2 3 3 3 2 1 2 4 6 6
Wind_Speed
7 5 2 1 2 4 2 2 5 7 6 7 10 10 9 7 4 5 2 6 9 9 7 10 13 14 14 14 13 13 13 13 13 13 13 13 13 13 13 13 13 12 12 11 11 11 10 10 10
4 4 1 2 4 4 2 3 8 9 9 9 10 10 9 7 6 7 4 7 10 9 7 9 13 13 13 13 13 12 12 12 12 13 13 12 12 12 12 12 12 11 11 10 10 9 9 9 9
3 2 1 3 3 3 1 3 9 10 9 7 6 6 6 5 5 5 6 9 9 8 7 9 14 13 13 12 12 12 12 12 12 12 12 12 11 11 11 11 11 10 10 10 9 8 8 7 7
1 2 3 4 2 2 4 3 8 10 8 7 7 7 5 4 4 7 10 10 10 7 6 9 13 13 12 12 11 11 11 11 11 11 11 11 11 11 11 11 10 10 10 9 8 7 7 7 6
1 3 4 3 2 1 4 6 9 9 7 8 9 7 5 4 10 12 11 11 10 7 5 8 12 12 11 11 11 10 10 10 10 10 10 10 10 10 10 10 10 10 9 9 8 7 6 6 5
2 3 4 2 3 3 4 6 10 11 11 9 8 7 4 6 11 10 10 9 9 9 6 6 11 11 10 10 10 10 9 9 9 9 9 9 9 9 9 9 9 9 9 8 8 7 6 6 5
2 3 3 2 3 3 4 5 8 9 9 6 6 6 5 6 8 10 10 9 9 8 6 4 4 6 8 9 9 9 8 8 8 8 8 9 9 9 9 8 8 8 8 8 7 7 7 6 6
3 3 1 1 3 2 2 4 5 8 7 7 5 7 6 7 9 11 10 9 8 7 6 5 4 3 3 4 7 8 8 7 7 7 7 7 8 8 8 7 8 8 7 7 7 7 7 7 6
3 4 1 2 3 3 3 6 4 5 7 4 5 7 9 12 12 11 9 7 6 6 4 4 4 3 2 3 5 5 6 6 6 5 7 6 3 3 4 6 8 8 7 7 7 7 7 7 7
4 3 4 4 5 6 5 5 4 5 8 8 9 10 11 11 11 11 10 8 6 6 5 3 4 3 3 3 2 1 2 2 2 2 3 2 2 2 4 6 8 8 7 7 7 7 8 6 3
3 5 3 3 6 7 6 4 4 8 6 10 13 12 11 11 9 9 8 7 7 6 6 4 4 3 3 2 2 1 1 1 1 2 2 2 2 2 2 2 4 4 5 4 4 4 3 3 3
1 1 3 4 5 6 6 4 4 5 7 11 13 13 11 11 9 8 8 6 6 6 5 4 3 3 2 2 2 2 1 1 1 2 2 2 1 2 2 2 2 2 2 2 2 2 3 3 4
1 0 2 4 4 5 8 5 5 6 9 11 13 13 11 10 8 6 7 7 6 5 5 4 4 3 3 2 2 2 2 2 2 2 2 3 2 2 2 2 2 2 2 3 3 3 3 3 3
1 1 2 3 4 4 8 4 6 7 11 12 12 10 9 9 8 7 6 5 5 5 4 3 4 3 3 2 2 2 2 1 1 1 2 2 2 2 2 2 2 2 2 2 3 3 3 3 3
3 4 4 1 2 4 8 5 5 9 11 11 11 10 10 8 8 8 6 6 5 4 4 3 4 3 3 2 2 1 1 1 1 1 1 2 2 2 2 2 1 2 2 2 2 2 2 2 2
4 4 2 3 1 2 7 3 5 8 10 9 9 9 9 7 7 6 6 5 5 4 4 3 3 3 2 1 1 1 1 2 1 1 1 1 2 2 2 1 1 1 1 1 2 2 1 1 1
4 1 2 4 2 2 4 3 5 6 9 8 8 8 8 7 6 5 6 6 5 4 4 3 2 2 1 1 1 1 1 1 1 1 1 1 1 2 2 1 1 1 1 1 2 2 2 2 1
3 2 3 3 2 3 3 3 6 6 8 8 7 7 7 7 6 6 6 6 5 4 3 3 2 1 1 1 1 1 1 0 0 1 1 1 1 1 1 1 1 1 1 1 1 1 1 1 1
4 2 4 5 4 3 4 6 6 6 7 7 6 6 6 6 6 6 6 6 5 4 3 2 2 0 1 1 1 1 0 0 0 1 1 1 1 1 1 1 1 1 1 1 1 1 1 1 1
2 2 4 3 2 4 5 3 3 5 7 8 9 8 7 5 5 5 5 5 5 4 3 2 2 1 1 1 1 1 1 0 0 0 0 0 1 1 1 1 1 1 1 1 1 1 1 1 1
4 4 4 3 2 5 6 3 2 1 2 5 6 7 7 8 8 7 6 5 4 4 3 3 2 1 1 0 0 1 1 2 2 2 1 1 0 1 0 1 1 1 2 1 1 1 2 1 1
4 5 4 3 2 0 2 1 3 3 2 4 5 6 7 7 7 6 6 5 5 4 4 3 2 1 1 1 2 2 2 1 0 0 0 1 1 1 1 1 1 1 1 1 1 1 1 2 1
5 2 2 2 3 2 2 3 4 2 3 4 6 7 7 7 7 7 7 6 5 4 4 3 2 1 1 1 2 2 1 1 1 1 2 2 2 2 1 1 1 1 1 1 0 1 1 1 1
2 4 5 5 5 3 2 2 4 3 6 5 5 6 6 6 6 7 6 5 3 2 3 3 2 1 1 1 2 2 2 2 2 1 1 1 1 2 2 2 1 1 0 1 1 1 1 1 1
5 6 4 5 4 3 2 2 6 5 4 6 7 7 6 6 6 8 7 5 3 2 3 3 3 2 1 1 1 2 2 2 2 1 1 0 1 1 1 1 1 1 0 0 1 1 1 1 1
2 8 7 4 3 3 2 2 5 3 3 4 6 7 7 6 6 7 8 7 4 3 4 4 3 2 2 1 1 2 2 2 1 1 1 0 0 0 1 1 1 1 1 1 0 0 1 0 1
2 1 6 7 2 1 2 2 3 2 2 4 4 5 6 7 7 8 7 7 6 5 4 4 4 3 2 2 1 2 2 2 2 1 1 0 1 0 1 1 1 2 2 2 1 0 1 0 1
5 4 5 5 3 1 2 3 3 4 3 3 5 5 5 6 7 6 6 6 6 5 4 4 4 4 2 2 2 2 2 2 2 1 1 1 1 1 1 1 1 1 2 2 1 1 1 1 0
2 3 4 3 5 6 3 6 6 9 7 6 6 6 7 7 7 7 6 6 6 5 4 4 3 3 3 2 2 2 2 1 1 1 0 0 1 1 1 0 1 1 1 1 1 1 1 1 1
4 4 6 4 2 4 4 6 3 8 7 7 6 6 6 7 7 6 6 6 5 5 4 4 4 3 3 3 3 2 1 1 1 1 0 0 0 1 0 0 1 1 1 1 1 1 1 1 1
Wind_Direction
186 178 173 196 47 46 37 63 99 85 62 63 76 82 82 65 84 121 163 141 136 134 138 135 130 126 125 123 121 120 120 119 121 122 122 123 127 130 133 134 135 138 139 141 140 139 139 139 135
182 183 173 39 64 58 12 59 81 91 114 103 79 79 78 68 80 108 124 139 133 133 137 137 132 129 127 125 124 123 124 124 127 128 128 129 131 134 137 137 138 140 142 143 143 143 142 142 140
197 199 72 52 66 113 79 66 90 89 88 83 76 59 68 91 100 120 145 141 129 129 134 138 133 130 129 127 127 127 128 128 130 133 134 135 136 138 141 141 143 145 147 149 149 147 145 148 148
169 77 50 62 77 155 140 130 100 91 65 56 80 67 63 78 111 130 136 135 127 125 128 135 133 132 131 130 130 131 133 132 134 137 139 141 142 143 145 148 150 153 154 155 155 153 151 154 155
91 74 57 55 60 93 122 115 99 92 86 79 82 87 75 71 109 122 128 133 130 128 130 136 135 136 135 134 134 134 137 137 141 142 143 146 147 148 152 155 156 158 160 163 164 164 162 164 165
54 68 70 61 51 54 83 93 96 95 102 97 93 96 95 116 119 128 126 126 129 132 133 137 137 135 137 138 138 140 140 140 142 145 148 151 155 157 161 164 164 169 172 172 174 175 177 181 180
109 86 104 117 86 72 89 85 96 111 109 110 117 101 110 125 131 127 121 118 119 122 123 121 131 136 142 145 144 143 144 145 146 148 154 161 164 167 170 173 175 180 182 182 181 185 191 194 194
151 102 78 94 90 75 65 73 95 106 102 116 113 119 143 152 135 122 118 116 119 119 120 121 119 119 139 151 149 149 147 149 151 154 161 167 172 176 181 184 187 189 191 194 198 199 203 208 210
125 80 109 178 139 139 99 86 82 78 101 93 84 115 140 136 126 118 112 110 117 120 126 133 136 133 131 143 162 160 157 159 163 167 172 173 175 178 184 194 197 199 203 206 209 210 212 214 217
123 131 205 185 154 148 129 119 122 93 90 92 98 108 122 126 125 127 130 135 137 142 147 144 143 149 150 151 142 164 166 162 170 167 177 173 173 189 201 207 208 211 212 218 221 221 222 220 213
143 168 186 145 138 136 132 125 112 117 119 139 138 138 135 127 126 132 137 143 150 154 152 156 156 155 152 148 146 162 177 167 173 179 178 178 185 197 211 213 214 215 219 226 229 230 225 213 203
136 216 153 143 134 130 135 124 111 129 153 147 143 142 135 130 134 138 142 147 145 143 152 156 153 145 152 153 166 176 183 174 180 195 188 177 181 193 201 208 212 215 219 217 218 211 212 209 212
41 5 78 121 110 116 117 118 121 125 133 135 131 129 133 133 131 127 132 140 139 142 146 144 141 141 145 144 169 163 187 181 189 197 193 178 177 192 196 202 207 215 218 215 207 202 204 208 212
265 40 43 85 95 115 119 116 108 134 136 135 134 134 136 134 131 122 124 131 140 144 151 150 146 148 141 144 158 171 175 164 159 178 186 180 170 174 177 191 206 220 216 212 202 199 197 202 200
16 35 20 43 103 122 99 74 122 148 137 134 137 136 134 134 135 138 141 140 143 147 147 155 151 141 140 150 164 151 163 153 159 174 182 172 172 176 172 186 209 229 219 201 185 187 179 187 199
26 38 0 287 168 149 104 139 167 156 138 138 141 139 136 139 140 143 140 135 141 137 134 147 140 134 146 146 148 143 145 146 168 166 168 168 177 177 158 180 214 223 195 183 177 164 158 173 190
21 12 282 289 246 127 105 161 167 162 140 141 145 143 141 143 141 140 136 132 137 137 133 133 127 143 160 147 117 114 126 146 170 159 166 172 169 166 158 181 203 183 161 177 182 149 151 166 193
250 254 272 266 228 119 105 142 148 151 143 146 148 145 145 151 159 151 140 136 130 128 126 117 111 135 155 115 63 55 64 68 111 179 194 182 182 161 146 164 191 156 140 146 145 148 157 170 183
214 221 265 259 209 118 138 140 162 160 149 145 150 153 156 164 162 153 146 141 128 123 123 119 110 94 117 121 127 122 77 340 359 217 191 187 188 170 139 143 127 131 149 175 158 144 164 161 115
214 229 269 268 202 111 118 119 159 163 166 168 163 168 168 160 159 161 153 144 146 150 153 150 154 141 153 201 198 180 176 200 164 341 328 170 166 161 138 141 148 148 140 126 143 140 137 173 136
248 213 225 219 21 72 102 39 36 164 143 153 166 172 172 169 174 171 165 162 158 162 172 170 178 182 209 224 66 52 51 34 26 12 350 332 118 150 130 143 147 156 158 184 208 170 155 174 197
254 236 202 173 110 24 113 143 259 199 175 175 183 187 181 176 174 174 169 167 172 178 177 173 181 184 194 139 111 115 122 130 241 258 356 357 10 54 90 118 125 150 151 174 208 166 167 154 200
222 200 127 139 114 66 26 115 272 187 196 206 198 194 187 181 179 177 175 169 169 168 164 167 157 156 130 118 132 125 116 128 84 61 54 27 9 19 46 75 82 93 127 152 184 154 155 155 174
146 53 35 49 70 50 283 139 262 224 204 195 192 186 175 164 167 165 167 152 149 152 158 148 133 146 142 127 131 135 135 123 97 74 59 21 5 8 13 38 42 46 115 170 196 175 177 189 167
84 85 31 6 22 257 279 124 248 242 194 181 177 174 163 155 150 152 156 157 156 154 170 150 144 166 168 149 157 151 153 146 139 139 123 76 17 358 347 17 22 13 338 248 210 179 201 195 177
190 133 150 182 216 274 342 211 256 247 184 163 161 162 159 153 153 155 155 152 148 156 166 154 161 167 158 146 162 161 151 147 149 141 131 126 218 279 336 18 10 359 0 358 352 171 245 209 202
145 141 159 131 115 66 307 288 313 38 111 120 126 138 155 164 165 164 160 155 157 158 152 159 169 163 153 152 132 122 126 124 119 111 97 350 307 324 15 33 23 3 360 354 359 355 267 258 234
137 144 83 100 136 183 288 265 227 227 203 162 152 154 165 171 166 160 157 161 164 164 158 150 155 171 157 138 138 125 108 109 103 91 76 45 325 325 16 16 22 12 6 5 8 359 1 48 324
61 67 97 113 147 148 198 262 214 194 190 173 176 172 161 158 163 159 157 161 161 154 149 149 149 136 127 124 114 112 116 129 118 112 135 190 303 332 13 24 19 2 1 4 16 4 20 32 349
147 156 137 141 222 156 161 259 228 171 177 170 166 160 153 150 153 155 156 154 153 153 147 147 148 146 148 141 121 122 113 107 114 135 243 224 314 324 326 32 36 7 7 4 14 2 2 342 314